Location: Northcutt
(34.7304°N, 84.4305°W)
Time: 17:28:38
(UTC+00:00)

SR - Pass Details

Date: 06 October 2022
Orbit: 577 x 874 km, 66.7° (Epoch: 05 December)

Event Time Altitude Azimuth Distance (km) Brightness Sun altitude
Rises 02:23:26 0° 237° (WSW) 3,417 ? -38.5°
Reaches altitude 10° 02:26:15 10° 249° (WSW) 2,505 ? -39.0°
Enters shadow 02:30:29 27° 295° (WNW) 1,623 ? -39.8°
Maximum altitude 02:31:10 28° 306° (NW) 1,601 - -40.0°
Drops below altitude 10° 02:36:08 10° 4° (N) 2,518 - -40.9°
Sets 02:38:59 0° 16° (NNE) 3,439 - -41.4°
